Tracking 19564 objects as of 19-Mar-2019
HD Live streaming from Space Station
objects crossing your sky now

SL-14 R/B

Track SL-14 R/B now!
10-day predictions
SL-14 R/B is classified as:


NORAD ID: 19574
Int'l Code: 1988-093B
Perigee: 610.7 km
Apogee: 641.5 km
Inclination: 82.5 °
Period: 97.1 minutes
Semi major axis: 6997 km
RCS: 5.3338 m2 (large)
Launch date: October 11, 1988
Source: Commonwealth of Independent States (former USSR) (CIS)
Launch site: PLESETSK MISSILE AND SPACE COMPLEX (PKMTR)

Note: This is a ROCKET BODY
aabbcc
Your satellite tracking list
Your tracking list is empty




NASA's NSSDC Master Catalog

Two Line Element Set (TLE):
1 19574U 88093B   19077.87944201  .00000090  00000-0  79748-5 0  9992
2 19574  82.5290 266.9586 0022048 163.7132 323.1838 14.83291667644273
Source of the keplerian elements: AFSPC